Tracking 25963 objects as of 12-Aug-2022
HD Live streaming from Space Station
objects crossing your sky now

RESURS O1 DEB

Track RESURS O1 DEB now!
10-day predictions


NORAD ID: 47323
Int'l Code: 1994-074DM
Perigee: 599.1 km
Apogee: 602.3 km
Inclination: 97.9 °
Period: 96.6 minutes
Semi major axis: 6971 km
RCS: Unknown
Launch date: November 4, 1994
Source: Commonwealth of Independent States (former USSR) (CIS)
Launch site: TYURATAM MISSILE AND SPACE COMPLEX (TTMTR)

Note: This is SATELLITE DEBRIS
aabbcc
Your satellite tracking list
Your tracking list is empty




NASA's NSSDC Master Catalog

Two Line Element Set (TLE):
1 47323U 94074DM  22223.86756851  .00010464  00000-0  10524-2 0  9999
2 47323  97.8565 272.8121 0002339  41.2864 318.8531 14.91404002 87319
Source of the keplerian elements: AFSPC